Location: Unspecified
(0.0000°N, 0.0000°E)
Time: 21:23:26
(UTC+00:00)

Tiros 1 despin weight - Pass Details

Date: 29 May 2022
Orbit: 591 x 639 km, 48.2° (Epoch: 25 June)

Event Time Altitude Azimuth Distance (km) Brightness Sun altitude
Rises 02:36:55 0° 300° (WNW) 2,810 - -45.5°
Reaches altitude 10° 02:39:27 10° 288° (WNW) 1,916 - -45.0°
Maximum altitude 02:43:09 26° 230° (SW) 1,172 - -44.2°
Drops below altitude 10° 02:46:53 10° 173° (S) 1,941 - -43.4°
Sets 02:49:29 0° 160° (SSE) 2,854 - -42.8°
